Location: Hermaringen
(48.5952°N, 10.2585°E)
Time: 04:33:30
(UTC+00:00)

Transit 2A - Pass Details

Date: 20 February 2026
Orbit: 590 x 954 km, 66.7° (Epoch: 14 March)

Event Time Altitude Azimuth Distance (km) Brightness Sun altitude
Rises 20:42:00 0° 320° (NW) 3,564 10.3 -38.1°
Reaches altitude 10° 20:44:47 10° 312° (NW) 2,577 9.4 -38.5°
Enters shadow 20:48:05 28° 288° (WNW) 1,585 8.0 -38.9°
